STARLINK-32097 (60351 NORAD) Tracking and Keplerian Element Data

This shows tracking and keplerian element data for the satellite.

Feedback or suggestion? Click here.




ElementValue
Catalog60351
NameSTARLINK-32097
Epoch Orbit1113
Epoch Day286.73370192
Epoch Year2024
RAAN297.9342
Inclination53.1612
Eccentricity0.0001214
Argument of Perigee77.6362
Mean Anonmoly282.4775
Mean Motion15.30221328
Decay Rate-4.281E-05
L11 60351U 24136Y 24286.73370192 -.00004281 00000+0 -13241-3 0 9995
L22 60351 53.1612 297.9342 0001214 77.6362 282.4775 15.30221328 11138



Live tracking and technical data element details for STARLINK-32097 (NORAD 60351). STARLINK-32097 can be tracked NOW for your location showing map with azimuth and elevation plus other details from your city location.







IsCatalogInMostPopularTable: catalog: 60351, numindb: 6
Update: records affected: 1



GetName: 60351 STARLINK-32097

Hit Count: updated at: Wed, 04 Dec 2024 18:35:07 GMT